Regional Weather Roundup
Issued by NWS

Home | Current Version | Previous Version | Text Only | Print | Product List | Glossary On
Versions: 1 2 3 4 5 6 7 8 9 10 11 12 13 14 15 16 17 18 19 20 21 22 23 24 25 26 27 28 29 30 31 32 33 34 35 36 37 38 39 40 41 42 43 44 45 46 47 48 49 50
000
ASUS43 KBIS 060820
RWRND

NORTH DAKOTA REGIONAL WEATHER ROUNDUP
NATIONAL WEATHER SERVICE BISMARCK ND
300 AM CDT WED MAY 06 2015

NOTE: "FAIR" INDICATES FEW OR NO CLOUDS BELOW 12,000 FEET WITH NO
SIGNIFICANT WEATHER AND/OR OBSTRUCTIONS TO VISIBILITY.


NDZ001>003-009>011-017-060900-
NORTHWEST NORTH DAKOTA

CITY           SKY/WX    TMP DP  RH WIND       PRES   REMARKS
WILLISTON      PTCLDY    61  51  70 SE12      29.72F
MINOT          CLEAR     53  44  71 SE7       29.81S
MINOT AFB      CLEAR     50  44  78 SE10      29.80S
$$

NDZ018>021-031>035-040>046-060900-
SOUTHWEST NORTH DAKOTA

CITY           SKY/WX    TMP DP  RH WIND       PRES   REMARKS
BISMARCK       MOCLDY    59  31  34 SE8       29.84F
DICKINSON      MOCLDY    54  51  90 SE9       29.75F
GARRISON         N/A     56  51  84 SE12      29.81F
HETTINGER ARPT CLOUDY    57  53  86 SE12      29.79F
$$

NDZ004>008-012>016-024-026-027-054-060900-
NORTHEAST NORTH DAKOTA

CITY           SKY/WX    TMP DP  RH WIND       PRES   REMARKS
GRAND FORKS    PTCLDY    58  51  78 S10       29.95F
GRND FRKS AFB  PTCLDY    58  52  81 SE9       29.95
DEVILS LAKE    CLOUDY    59  52  77 SE13      29.89F
$$

NDZ022-023-025-028>030-036>039-047>053-060900-
SOUTHEAST NORTH DAKOTA

CITY           SKY/WX    TMP DP  RH WIND       PRES   REMARKS
FARGO          CLOUDY    61  54  77 S15G24    29.95F
JAMESTOWN      CLOUDY    59  53  80 SE14      29.90F
$$




USA.gov is the U.S. government's official web portal to all federal, state and local government web resources and services.